Location: Blue Mountain Vista Observatory
(40.6992°N, 75.9422°W)
Time: 19:13:48
(UTC-04:00)

IDEFIX/ARIANE 42P - Visible Passes

Search period start: 28 August 2014 00:00
Search period end: 07 September 2014 00:00
Orbit: 785 x 804 km, 98.3° (Epoch: 25 August)

Date Brightness Start Highest point End Pass type
(mag) Time Alt. Az. Time Alt. Az. Time Alt. Az.
28 Aug 3.3 21:07:17 10° S 21:12:18 52° W 21:17:22 10° NNW visible
29 Aug 2.5 20:38:59 10° SSE 20:44:09 86° ENE 20:49:22 10° NNW visible
29 Aug 5.4 22:23:31 10° W 22:24:25 10° W 22:25:19 10° WNW visible
30 Aug 2.9 20:11:12 10° SE 20:16:07 47° ENE 20:21:05 10° N visible
30 Aug 4.9 21:52:12 10° SW 21:55:58 20° W 21:59:45 10° NW visible
31 Aug 3.9 21:22:54 10° SSW 21:27:38 37° W 21:32:26 10° NNW visible
01 Sep 2.9 20:54:18 10° S 20:59:26 68° WSW 21:04:37 10° NNW visible
02 Sep 2.6 20:26:13 10° SSE 20:31:20 67° ENE 20:36:29 10° N visible
02 Sep 5.2 22:08:41 10° WSW 22:11:24 14° W 22:14:08 10° WNW visible
03 Sep 3.2 19:58:39 10° SE 20:03:21 37° ENE 20:08:05 10° N visible
03 Sep 4.5 21:38:43 10° SSW 21:43:01 26° W 21:47:20 10° NW visible
04 Sep 3.4 21:09:45 10° S 21:14:44 48° W 21:19:45 10° NNW visible
05 Sep 2.5 20:41:24 10° SSE 20:46:34 88° WSW 20:51:48 10° NNW visible
06 Sep 2.8 20:13:33 10° SE 20:18:31 51° ENE 20:23:33 10° N visible
06 Sep 4.9 21:54:50 10° SW 21:58:25 19° W 22:02:02 10° NW visible
